TimeMDT,TemperatureF,Dew PointF,Humidity,Sea Level PressureIn,VisibilityMPH,Wind Direction,Wind SpeedMPH,Gust SpeedMPH,PrecipitationIn,Events,Conditions,WindDirDegrees,DateUTC
12:15 AM,21.2,12.2,68,30.23,10.0,SE,12.7,-,N/A,,Clear,140,2013-03-26 06:15:00
12:35 AM,21.0,12.0,68,30.23,10.0,SSE,9.2,18.4,N/A,,Clear,160,2013-03-26 06:35:00
12:55 AM,20.8,11.8,68,30.23,10.0,South,6.9,-,N/A,,Clear,180,2013-03-26 06:55:00
1:15 AM,20.7,12.0,69,30.23,10.0,SSE,4.6,-,N/A,,Clear,150,2013-03-26 07:15:00
1:35 AM,19.6,11.7,71,30.23,10.0,SSE,5.8,-,N/A,,Clear,150,2013-03-26 07:35:00
1:55 AM,18.7,11.7,74,30.23,10.0,SSE,5.8,-,N/A,,Clear,150,2013-03-26 07:55:00
2:15 AM,16.9,10.9,77,30.22,10.0,SSW,4.6,-,N/A,,Clear,200,2013-03-26 08:15:00
2:35 AM,16.9,10.4,76,30.22,10.0,Calm,Calm,-,N/A,,Clear,0,2013-03-26 08:35:00
2:55 AM,15.6,10.0,79,30.22,10.0,Calm,Calm,-,N/A,,Clear,0,2013-03-26 08:55:00
3:15 AM,14.9,10.2,82,30.21,10.0,Calm,Calm,-,N/A,,Clear,0,2013-03-26 09:15:00
3:35 AM,15.3,10.4,81,30.20,10.0,Calm,Calm,-,N/A,,Clear,0,2013-03-26 09:35:00
3:55 AM,14.9,10.2,82,30.20,10.0,Calm,Calm,-,N/A,,Clear,0,2013-03-26 09:55:00
4:15 AM,14.7,10.4,83,30.19,10.0,Calm,Calm,-,N/A,,Clear,0,2013-03-26 10:15:00
4:35 AM,14.7,10.8,84,30.19,10.0,Calm,Calm,-,N/A,,Clear,0,2013-03-26 10:35:00
4:55 AM,15.6,10.8,81,30.19,10.0,WNW,3.5,-,N/A,,Clear,300,2013-03-26 10:55:00
5:15 AM,16.7,9.1,72,30.19,10.0,Calm,Calm,-,N/A,,Clear,0,2013-03-26 11:15:00
5:35 AM,16.7,7.7,68,30.19,10.0,NW,4.6,-,N/A,,Clear,310,2013-03-26 11:35:00
5:55 AM,16.7,7.3,67,30.18,10.0,NNW,8.1,-,N/A,,Clear,340,2013-03-26 11:55:00
6:15 AM,17.2,6.8,64,30.17,10.0,NNW,10.4,-,N/A,,Clear,330,2013-03-26 12:15:00
6:35 AM,17.4,6.1,61,30.17,10.0,NNW,11.5,16.1,N/A,,Clear,340,2013-03-26 12:35:00
6:55 AM,17.6,6.1,61,30.17,10.0,NNW,11.5,-,N/A,,Clear,340,2013-03-26 12:55:00
7:15 AM,17.6,5.5,59,30.17,10.0,NNW,13.8,-,N/A,,Clear,330,2013-03-26 13:15:00
7:35 AM,18.5,6.4,59,30.17,10.0,NNW,13.8,-,N/A,,Clear,330,2013-03-26 13:35:00
7:55 AM,20.5,7.0,56,30.16,10.0,NNW,12.7,16.1,N/A,,Clear,340,2013-03-26 13:55:00
8:15 AM,22.6,7.5,52,30.16,10.0,NNW,11.5,-,N/A,,Clear,340,2013-03-26 14:15:00
8:35 AM,24.8,8.2,49,30.15,10.0,NNW,11.5,-,N/A,,Clear,330,2013-03-26 14:35:00
8:55 AM,25.9,10.8,53,30.15,10.0,North,3.5,-,N/A,,Clear,10,2013-03-26 14:55:00
9:15 AM,28.0,11.7,50,30.15,10.0,North,6.9,-,N/A,,Clear,350,2013-03-26 15:15:00
9:35 AM,29.7,12.9,50,30.15,10.0,North,4.6,-,N/A,,Clear,360,2013-03-26 15:35:00
9:55 AM,32.5,13.5,45,30.15,10.0,North,4.6,-,N/A,,Clear,350,2013-03-26 15:55:00
10:15 AM,36.7,14.0,39,30.13,10.0,North,4.6,-,N/A,,Clear,10,2013-03-26 16:15:00
10:35 AM,40.6,15.3,36,30.12,10.0,NNE,8.1,-,N/A,,Clear,30,2013-03-26 16:35:00
10:55 AM,41.4,15.3,35,30.12,10.0,NNW,4.6,-,N/A,,Scattered Clouds,330,2013-03-26 16:55:00
11:15 AM,47.5,14.7,27,30.10,10.0,SSW,21.9,33.4,N/A,,Scattered Clouds,200,2013-03-26 17:15:00
11:35 AM,48.9,15.1,26,30.10,10.0,SSW,19.6,31.1,N/A,,Scattered Clouds,210,2013-03-26 17:35:00
11:55 AM,49.6,14.7,25,30.09,10.0,SSW,19.6,25.3,N/A,,Clear,200,2013-03-26 17:55:00
12:15 PM,50.9,14.5,24,30.09,10.0,SSW,16.1,25.3,N/A,,Clear,200,2013-03-26 18:15:00
12:55 PM,52.5,14.0,22,30.07,10.0,SSW,16.1,24.2,N/A,,Clear,210,2013-03-26 18:55:00
1:15 PM,52.5,13.1,21,30.08,10.0,SW,10.4,28.8,N/A,,Clear,220,2013-03-26 19:15:00
1:35 PM,53.2,11.8,19,30.07,10.0,WSW,16.1,21.9,N/A,,Clear,240,2013-03-26 19:35:00
1:55 PM,55.8,10.2,16,30.06,10.0,WSW,21.9,32.2,N/A,,Clear,240,2013-03-26 19:55:00
2:15 PM,55.6,10.6,17,30.05,10.0,WSW,18.4,36.8,N/A,,Scattered Clouds,250,2013-03-26 20:15:00
2:55 PM,56.1,10.0,16,30.04,10.0,WSW,16.1,24.2,N/A,,Scattered Clouds,250,2013-03-26 20:55:00
3:15 PM,55.9,11.3,17,30.04,10.0,WSW,18.4,28.8,N/A,,Clear,250,2013-03-26 21:15:00
3:35 PM,57.2,12.2,17,30.03,10.0,WSW,20.7,31.1,N/A,,Clear,240,2013-03-26 21:35:00
3:55 PM,57.0,11.1,16,30.02,10.0,SW,17.3,27.6,N/A,,Clear,230,2013-03-26 21:55:00
4:15 PM,56.7,10.6,16,30.02,10.0,WSW,15.0,28.8,N/A,,Clear,240,2013-03-26 22:15:00
4:35 PM,54.7,9.9,17,30.02,10.0,West,23.0,33.4,N/A,,Clear,280,2013-03-26 22:35:00
4:55 PM,54.0,10.2,17,30.02,10.0,WSW,15.0,25.3,N/A,,Clear,250,2013-03-26 22:55:00
5:15 PM,53.8,11.7,19,30.03,10.0,WSW,16.1,23.0,N/A,,Clear,250,2013-03-26 23:15:00
5:35 PM,52.9,11.3,19,30.03,10.0,WSW,17.3,23.0,N/A,,Clear,250,2013-03-26 23:35:00
5:55 PM,50.9,10.9,20,30.04,10.0,WSW,17.3,27.6,N/A,,Clear,250,2013-03-26 23:55:00
6:15 PM,50.7,11.3,21,30.04,10.0,West,15.0,23.0,N/A,,Clear,260,2013-03-27 00:15:00
6:35 PM,49.5,11.8,22,30.04,10.0,West,16.1,28.8,N/A,,Clear,260,2013-03-27 00:35:00
6:55 PM,48.7,12.6,23,30.04,10.0,West,10.4,24.2,N/A,,Clear,260,2013-03-27 00:55:00
7:15 PM,48.0,12.7,24,30.04,10.0,West,10.4,17.3,N/A,,Clear,260,2013-03-27 01:15:00
7:35 PM,47.1,12.7,25,30.04,10.0,WSW,8.1,-,N/A,,Clear,250,2013-03-27 01:35:00
7:55 PM,46.4,12.0,25,30.04,10.0,WSW,8.1,-,N/A,,Clear,250,2013-03-27 01:55:00
8:15 PM,45.0,12.9,27,30.05,10.0,Calm,Calm,-,N/A,,Clear,0,2013-03-27 02:15:00
8:35 PM,40.1,13.5,34,30.05,10.0,Calm,Calm,-,N/A,,Clear,0,2013-03-27 02:35:00
8:55 PM,39.2,13.3,35,30.06,10.0,Calm,Calm,-,N/A,,Clear,0,2013-03-27 02:55:00
9:15 PM,40.8,13.8,33,30.07,10.0,Calm,Calm,-,N/A,,Clear,0,2013-03-27 03:15:00
9:35 PM,42.6,17.6,37,30.07,10.0,NW,6.9,-,N/A,,Clear,310,2013-03-27 03:35:00
9:55 PM,42.1,19.0,40,30.07,10.0,NNW,3.5,-,N/A,,Clear,340,2013-03-27 03:55:00
10:15 PM,38.5,19.4,46,30.08,10.0,Calm,Calm,-,N/A,,Clear,0,2013-03-27 04:15:00
10:35 PM,38.8,19.2,45,30.07,10.0,Calm,Calm,-,N/A,,Clear,0,2013-03-27 04:35:00
10:55 PM,36.1,19.8,51,30.07,10.0,Calm,Calm,-,N/A,,Clear,0,2013-03-27 04:55:00
11:15 PM,35.4,19.4,52,30.08,10.0,Calm,Calm,-,N/A,,Clear,0,2013-03-27 05:15:00
11:35 PM,36.7,19.0,49,30.07,10.0,Calm,Calm,-,N/A,,Clear,0,2013-03-27 05:35:00
11:55 PM,36.9,18.7,48,30.07,10.0,Calm,Calm,-,N/A,,Clear,0,2013-03-27 05:55:00